#timestamp,LO_Frequency,Hit,StdDev 
1628233215.9,286047000.7,N
1628233235.7,286047001.0,N
1628233255.6,286046998.1,N
1628233275.4,286046999.2,N
1628233295.2,286046998.9,N
1628233315.1,286046998.2,N
1628233316.0,286046998.2,N
1628233335.8,286046998.8,N
1628233355.7,286046999.1,N
1628233375.5,286046996.8,N
1628233395.3,286046997.8,N
1628233415.2,286046998.0,N
1628233435.0,286046995.3,Y
1628233435.9,286046995.3,P
1628233455.7,286046999.5,N
1628233475.6,286046999.2,N
1628233495.4,286046999.6,N
1628233515.3,286046997.9,N
1628233535.1,286046995.4,Y
1628233555.8,286046996.6,P
1628233575.7,286046999.6,N
1628233595.5,286046998.7,N
1628233615.4,286047001.2,N
1628233635.2,286047000.7,N
1628233655.0,286047001.0,N
1628233655.9,286047001.0,N
1628233675.8,286046998.3,N
1628233695.6,286047001.2,N
1628233715.4,286046999.0,N
1628233735.3,286046998.1,N
1628233755.1,286046998.5,N
1628233775.9,286046998.6,N
1628233795.7,286046998.1,N
1628233815.5,286046998.1,N
1628233835.4,286046998.4,N
1628233855.2,286046998.1,N
1628233875.0,286046998.5,N
1628233875.9,286046998.5,N
1628233895.8,286046998.7,N
1628233915.6,286046998.9,N
1628233935.5,286046998.1,N
1628233955.3,286046998.9,N
1628233975.1,286046999.5,N
1628233995.9,286046996.9,N
1628234015.7,286046997.0,N
1628234035.5,286046996.5,N
1628234055.4,286046996.6,N
1628234075.2,286046997.0,N
1628234095.0,286046996.8,N
1628234096.0,286046996.8,N
1628234115.8,286046997.7,N
1628234135.6,286046997.6,N
1628234155.5,286046995.5,Y
1628234175.3,286046996.5,P
1628234195.1,286046999.3,N
1628234215.9,286046996.8,N
1628234235.7,286046996.9,N
1628234255.6,286046996.9,N
1628234275.4,286046996.8,Y
1628234295.2,286047001.1,P
1628234315.1,286046998.5,N
1628234316.0,286046998.5,N
1628234335.8,286047001.1,N
1628234355.6,286046998.2,N
1628234375.5,286046998.6,N
1628234395.3,286046999.2,N
1628234415.2,286047001.0,N
1628234435.9,286046998.7,N
1628234455.7,286046998.8,N
1628234475.6,286046996.5,N
1628234495.4,286046997.8,N
1628234515.2,286046995.4,Y
1628234535.1,286046997.4,P
1628234536.0,286046997.4,P
1628234555.8,286046997.4,P
1628234575.7,286046997.0,Y
1628234595.5,286047000.9,P
1628234615.3,286047000.7,N
1628234635.2,286047002.7,N
1628234655.0,286047000.1,N
1628234655.9,286047000.1,N
1628234675.8,286046999.7,N
1628234695.6,286047000.2,N
1628234715.4,286047000.2,N
1628234735.3,286047000.3,N
1628234755.1,286047000.5,N
1628234775.8,286046998.2,N
1628234795.7,286046999.5,N
1628234815.5,286046998.9,N
1628234835.4,286046996.6,N
1628234855.2,286046997.9,N
1628234875.0,286046995.5,Y
1628234875.9,286046995.5,P
1628234895.8,286046998.0,N
1628234915.6,286046994.0,P
1628234935.5,286046994.4,N
1628234955.3,286046996.3,N
1628234975.1,286046993.8,Y
1628234995.9,286046999.1,P
1628235015.7,286046996.8,N
1628235035.5,286046997.5,N
1628235055.4,286046995.6,Y
1628235075.2,286046997.6,P
1628235095.1,286046995.2,P
1628235096.0,286046995.2,P
1628235115.8,286046999.2,N
1628235135.6,286046999.6,N
1628235155.5,286046997.0,N
1628235175.3,286046997.8,N
1628235195.1,286046995.4,Y
1628235215.9,286046998.7,P
1628235235.7,286046999.0,N
1628235255.6,286046998.9,N
1628235275.4,286046998.3,N
1628235295.2,286046999.0,N
1628235315.1,286046998.8,N
1628235316.0,286046998.8,N
1628235335.8,286046996.5,Y
1628235355.7,286047000.9,P
1628235375.5,286046999.2,N
1628235395.3,286046997.2,N
1628235415.2,286046995.6,Y
1628235435.0,286046995.3,P
1628235435.9,286046995.3,N
1628235455.8,286046995.2,N
1628235475.6,286046995.3,N
1628235495.4,286046996.1,N
1628235515.3,286046996.1,N
1628235535.1,286046996.0,Y
1628235555.8,286046997.7,P
1628235575.7,286046997.7,N
1628235595.5,286046996.8,P
1628235615.4,286046997.0,Y
1628235635.2,286047001.2,P
1628235655.0,286047000.6,N
1628235655.9,286047000.6,N
1628235675.8,286047002.5,N
1628235695.6,286047001.9,N
1628235715.5,286047001.7,N
1628235735.3,286047001.7,N
1628235755.1,286047004.3,N
1628235775.9,286047001.8,N
1628235795.7,286047001.7,N
1628235815.5,286047001.8,N
1628235835.4,286047004.2,N
1628235855.2,286047004.3,N
1628235875.0,286047003.9,N
1628235876.0,286047003.9,N
1628235895.8,286047003.6,N
1628235915.6,286047005.9,Y
1628235935.5,286046999.8,P
1628235955.3,286046999.9,N
1628235975.1,286047002.7,N
1628235995.9,286047002.3,N
1628236015.7,286047001.3,N
1628236035.6,286047003.7,Y
1628236055.4,286046999.7,P
1628236075.2,286047002.4,N
1628236095.1,286047000.3,N
1628236096.0,286047000.3,N
1628236115.8,286047000.1,N
1628236135.6,286047001.6,N
1628236155.5,286047001.4,N
1628236175.3,286047004.0,Y
1628236195.2,286047002.8,P
1628236215.9,286047000.1,N
1628236235.7,286047002.6,N
1628236255.6,286047001.4,N
1628236275.4,286047000.1,N
1628236295.2,286047001.1,N
1628236315.1,286047000.8,N
1628236316.0,286047000.8,N
1628236335.8,286046998.8,N
1628236355.6,286046998.3,N
1628236375.5,286046998.1,N
1628236395.3,286047000.9,N
1628236415.2,286047000.9,N
1628236435.9,286046998.2,N
1628236455.7,286046999.1,N
1628236475.6,286046999.2,N
1628236495.4,286046999.1,N
1628236515.2,286046998.7,N
1628236535.1,286046999.3,N
1628236536.0,286046999.3,N
1628236555.8,286046996.6,N
1628236575.7,286046996.7,N
1628236595.5,286046999.3,N
1628236615.3,286046997.0,N
1628236635.2,286046999.1,N
1628236655.0,286046999.6,N
1628236655.9,286046999.6,N
1628236675.7,286046996.7,N
1628236695.6,286046995.4,N
1628236715.4,286046996.3,N
1628236735.3,286046993.6,Y
1628236755.1,286046995.4,P
1628236756.0,286046995.4,N
1628236775.8,286046996.2,N
1628236795.7,286046993.5,Y
